NOAA 16 DEB, 41255

Orbit data source: Space-Track

NOAA 16 DEB, 41255 is space debris in SSO originally from a launch on Thu, 21 Sep 2000 UTC launched from the Air Force Western Test Range (AFWTR). Debris objects in space refer to the collection of defunct objects orbiting the Earth. Examples of debris include non-operational satellites, rocket bodies, and fragments generated from explosions, collisions, or faulty payload assembly.

Loading next visibility...
Identifier
41255, 2000-055FF
Orbit
SSO
Country
Flag of USUS
Related business
Manufacturer
Unknown
Mission
Spacecraft
Bus & Motor
Unknown
Mass
Unknown
Launch date (UTC)
2000-09-21 (25 years ago)
Launch vehicle
Unknown
Launch site
Air Force Western Test Range (AFWTR)
Object type
Payload
Rocket body
Debris
Shape & HBR
Unknown shape, 0.1 m
Radar Cross Section
Small (<0.1 m²)

Expand to show TLE details & history
Last TLE update: 1 day ago

TLE from 1 day ago
0 NOAA 16 DEB
1 41255U 00055FF  25286.31006237  .00017908  00000-0  42834-2 0  9990
2 41255  98.7599  56.8325 0030312  31.1969 329.1017 14.53346112513476
Epoch: 2025-10-13T07:26Z
TLE epoch observation values (Epoch: 2025-10-13T07:26:29.388Z)
Latitude
-0.00004°
Longitude
-76.90462°
Altitude
699.264 km
Speed
7.516 km/s
True Right ascension
03h 47m 19s
True Declination
0° 00' 00"
Sunlit
Object was in full shadow at epoch
Visualization orbit readout
Latitude
Unknown
Longitude
Unknown
Altitude
Unknown
Speed
Unknown
Apparent Right ascension
Unknown
Apparent Declination
Unknown
Sunlit
N/A
Visualization observer readout
Local Sidereal Time
01:56:50
Azimuth
Unknown
Elevation
Unknown
Doppler factor
Unknown
Orbital elements
Apogee altitude
733.348 km
Perigee altitude
690.366 km
Semi-major axis
7,089.994 km
Eccentricity
0.00303
Inclination
98.7599°
RAAN
56.8325°
Arg. of periapsis
31.1969°
True anomaly
328.92275°
Mean anomaly
329.1017°
Eccentric anomaly
329.01228°
Mean motion
3.63559 °/min
Orbital period
99.02 mins
BSTAR
0.0042834
Loading maneuver chart data...
Computing Atmospheric mass density...
Loading historical data...
Loading historical data...
Loading historical data...
Loading historical data...
Loading historical data...
Loading historical data...
Loading historical data...

Documentation

Showing up to 5 results
|